Regional Weather Roundup
Issued by NWS

Home | Current Version | Previous Version | Graphics & Text | Print | Product List | Glossary On
Versions: 1 2 3 4 5 6 7 8 9 10 11 12 13 14 15 16 17 18 19 20 21 22 23 24 25 26 27 28 29 30 31 32 33 34 35 36 37 38 39 40 41 42 43 44 45 46 47 48 49 50
516
ASUS43 KMKX 261400
RWRWI

WISCONSIN REGIONAL WEATHER ROUNDUP
NATIONAL WEATHER SERVICE MILWAUKEE/SULLIVAN WI
900 AM CDT WED JUL 26 2017

NOTE: "FAIR" INDICATES FEW OR NO CLOUDS BELOW 12,000 FEET WITH NO
SIGNIFICANT WEATHER AND/OR OBSTRUCTIONS TO VISIBILITY.

WIZ001-002-006>008-014>016-023>028-261500-
NORTHWEST WISCONSIN

CITY           SKY/WX    TMP DP  RH WIND       PRES   REMARKS
SUPERIOR ARPT  NOT AVBL
ASHLAND        CLOUDY    73  66  78 W8        29.99R
HAYWARD        CLOUDY    70  68  93 CALM      30.00R
SIREN          CLOUDY    69  67  95 N3        30.00R
CUMBERLAND     CLOUDY    70  68  94 CALM      30.01R
RICE LAKE      DRIZZLE   69  67  93 S5        30.01S
CHETEK         RAIN      69  69  98 CALM      30.00S
LADYSMITH      LGT RAIN  70  69  96 SW6       30.02S
EAU CLAIRE     PTSUNNY   72  70  93 NW3       29.98F
MENOMONIE      DRIZZLE   70  70 100 CALM      30.00R
NEW RICHMOND   DRIZZLE   70  70  99 W3        30.02R
OSCEOLA        LGT RAIN  72  72 100 SW3       30.04R
$$

WIZ003>005-009-010-017-018-261500-
NORTH CENTRAL WISCONSIN

CITY           SKY/WX    TMP DP  RH WIND       PRES   REMARKS
MANITOWISH WTR CLOUDY    69  69 100 W5        30.00S
ARBOR VITAE    HVY RAIN  72  70  95 W3        30.00S
WOODRUFF       HVY RAIN  72  70  95 W3        30.00S
RHINELANDER    RAIN      69  69 100 SW7       30.03R FOG
EAGLE RIVER    LGT RAIN  69  69  99 W6        30.00R
LAND O LAKES   CLOUDY    70  68  95 NW5       30.01S
PHILLIPS       RAIN      69  69 100 SW5       30.01S
TOMAHAWK       RAIN      68  67  94 SW3       30.03R
MEDFORD        LGT RAIN  67  66  97 W3        30.01F
MERRILL        NOT AVBL
$$

WIZ029-030-035-036-043>047-261500-
CENTRAL WISCONSIN

CITY           SKY/WX    TMP DP  RH WIND       PRES   REMARKS
WAUSAU         RAIN      67  66  97 VRB3      29.99F FOG
MOSINEE        TSTM      66  66 100 W7G17     30.04F
MARSHFIELD     CLOUDY    68  65  90 S7        30.01F
STEVENS POINT  LGT RAIN  67  67 100 W8        30.04R
WAUPACA        CLOUDY    70  65  83 SW6       30.04R
WAUTOMA        LGT RAIN  67  65  93 NW5       30.06R
WISC RAPIDS    CLOUDY    69  68  96 SW6       30.04F
CAMP DOUGLAS   CLOUDY    72  70  94 W6        30.04S
$$

WIZ011>013-019>022-031-037>040-048>050-261500-
NORTHEAST WISCONSIN

CITY           SKY/WX    TMP DP  RH WIND       PRES   REMARKS
ANTIGO         RAIN      67  67  99 W12G18    30.05R
SHAWANO        CLOUDY    69  64  85 SW7       30.00R
OCONTO         CLOUDY    68  64  86 SW6       29.97F
STURGEON BAY     N/A     68  64  87 SW6       29.99S
GREEN BAY      CLOUDY    71  67  87 SW9       30.00S
MANITOWOC      CLOUDY    70  62  76 S7        30.01S
APPLETON       NOT AVBL
CLINTONVILLE   HVY RAIN N/A N/A N/A SW7       30.04R
OSHKOSH        CLOUDY    69  64  84 SW10      30.01S
$$

WIZ032>034-041-042-053>061-261500-
SOUTHWEST WISCONSIN

CITY           SKY/WX    TMP DP  RH WIND       PRES   REMARKS
LA CROSSE      CLOUDY    78  70  76 SE5       30.01S HX  80
SPARTA         CLOUDY    73  68  85 CALM      30.03F
VIROQUA        CLOUDY    71  71  98 CALM      30.06F
BOSCOBEL       PTSUNNY   76  69  79 SW6       30.02F
PRAIRIE DU CHI CLOUDY    74  67  79 S5        30.02F
PLATTEVILLE    CLOUDY    73  71  96 S10       30.05F
$$

WIZ056-057-062-063-064-067-068-261500-
SOUTH CENTRAL WISCONSIN

CITY           SKY/WX    TMP DP  RH WIND       PRES   REMARKS
REEDSBURG      PTSUNNY   71  70  97 W5        30.05R
BARABOO/DELLS  PTSUNNY   71  65  81 SW8       30.03S
LONE ROCK      CLOUDY    73  69  87 S3        30.04R
MINERAL POINT  MOSUNNY   72  72 100 S9        30.06S
MADISON        CLOUDY    71  65  81 SW8       30.04S
MIDDLETON      CLOUDY    71  66  84 SW7       30.05F
WATERTOWN      CLOUDY    68  66  93 S6        30.05F
MONROE         CLOUDY    70  64  83 S13       30.07S
JANESVILLE     MOSUNNY   72  64  78 SW8       30.06F
$$

WIZ051-052-058>065-066-070>072-261500-
SOUTHEAST WISCONSIN

CITY           SKY/WX    TMP DP  RH WIND       PRES   REMARKS
MILWAUKEE      PTSUNNY   73  63  70 SW14      30.05F
WAUKESHA       PTSUNNY   68  59  73 SW9       30.07F
MILWAUKEE/TIMM SUNNY     70  59  68 SW7       30.06F
RACINE         CLOUDY    73  64  73 SW7       30.08S
KENOSHA        PTSUNNY   72  63  73 SW9       30.07F
FOND DU LAC    CLOUDY    69  62  78 SW13      30.03F
SHEBOYGAN      CLOUDY    69  65  86 SW7       30.03F
WEST BEND      PTSUNNY   70  64  83 SW8       30.04F
JUNEAU         CLOUDY    67  63  84 S8        30.06F
$$

LSZ147-162-261500-
LAKE SUPERIOR

STATION/POSITION TIME  TEMP    WIND        PRES    WAVE
                       AIR SEA DIR/SP/G            HT/PER
                 (UTC) (F)     (DEG/KT/KT) (MB)    (FT/S)
W MID LAKE BUOY  1250   56 51  240/  8/ 10 1013.8R   1
DEVILS ISLAND    1300   65     270/ 12/ 13 1014.3R
PORT WING        1320   70     260/  8/ 11 1014.9S
SAXON HARBOR     1340   71     270/  3/  7 1014.2S
$$

LMZ867-665-643>646-261500-
LAKE MICHIGAN

STATION/POSITION TIME  TEMP    WIND        PRES    WAVE
                       AIR SEA DIR/SP/G            HT/PER
                 (UTC) (F)     (DEG/KT/KT) (MB)    (FT/S)
CHAMBERS ISLAND  1340   70     210/  7/ 13 1014.6R
S GREEN BAY BUOY 1330   71 71  210/ 16/ 21 1014.8S
N MID LAKE BUOY  1250   67 66  200/ 17/ 19 1015.5F   5/ 6
NORTHPORT PIER   1340   69     240/  2/  9 1014.9R
KEWAUNEE LAKESHO 1330   69     230/  4/  9 1015.1S
SHEBOYGAN LAKESH 1300   69     180/ 12/ 13 1016.5F
PORT WASHINGTON  1330   72     180/  8/ 10 1017.6F
ATWATER BUOY     1209   69 68  190/ 10/ 14 1018.2R
MILWAUKEE LAKESH 1330   71     230/ 11/ 12   N/A
S MID LAKE BUOY  1250   71 70  220/ 14/ 17 1018.7R   3/ 5
KENOSHA   LAKESH 1300   71     210/  8/ 15 1018.3
$$

TC  - TEMPERATURE IN CELSIUS
VSB - VISIBILITY IN STATUTE MILES
WCI - WIND CHILL INDEX
HX  - HEAT INDEX





USA.gov is the U.S. government's official web portal to all federal, state and local government web resources and services.